Regional Weather Roundup
Issued by NWS Boston, MA

Current Version | Previous Version | Text Only | Print | Product List | Glossary Off
Versions: 1 2 3 4 5 6 7 8 9 10 11 12 13 14 15 16 17 18 19 20 21 22 23 24 25 26 27 28 29 30 31 32 33 34 35 36 37 38 39 40 41 42 43 44 45 46 47 48 49 50
083 ASUS41 KBOX 210410 RWRBOX REGIONAL WEATHER ROUNDUP NATIONAL WEATHER SERVICE TAUNTON MA 1100 PM EST TUE FEB 20 2018 NOTE: "FAIR" INDICATES FEW OR NO CLOUDS BELOW 12,000 FEET WITH NO SIGNIFICANT WEATHER AND/OR OBSTRUCTIONS TO VISIBILITY. MAZALL-210500- EASTERN MASSACHUSETTS CITY SKY/WX TMP DP RH WIND PRES REMARKS BOSTON FAIR 44 42 93 NE3 30.27S BEVERLY MOCLDY 40 39 97 NE3 30.27R LAWRENCE FOG 42 40 92 NE3 30.29S VSB 1/4 BEDFORD FAIR 46 43 89 CALM 30.25S BLUE HILL N/A 54 50 86 SW15 30.26S NORWOOD FAIR 54 50 86 S5 30.28R MARSHFIELD FAIR 55 52 88 SW9G17 30.27F PLYMOUTH CLOUDY 48 47 96 S8 30.30S FOG TAUNTON CLOUDY 50 48 93 VRB5 30.29F NEW BEDFORD FAIR 48 48 100 SW9 30.31S $$ MAZALL-210500- CAPE COD AND THE ISLANDS CITY SKY/WX TMP DP RH WIND PRES REMARKS FALMOUTH FOG 46 46 100 SW17G24 30.34 VSB<1/4 HYANNIS N/A N/A N/A N/A MISG 30.31R CHATHAM FOG 45 45 100 SW13G21 30.34S VSB 3/4 PROVINCETOWN LGT RAIN 42 42 100 S13 30.30F VSB 3/4 NANTUCKET FOG 45 45 100 SW15 30.36S VSB 1/4 MARTHAS VNYRD FOG N/A N/A N/A SW13 30.35S VSB 3/4 $$ MAZALL-210500- CENTRAL AND WESTERN MASSACHUSETTS CITY SKY/WX TMP DP RH WIND PRES REMARKS WORCESTER FAIR 59 32 36 SW18 30.28R FITCHBURG FAIR 53 49 86 CALM 30.26S ORANGE FAIR 38 38 100 NW6 30.28R FOG SPRINGFIELD FAIR 55 50 84 S7 30.26S WESTFIELD FAIR 55 52 89 SE5 30.26S NORTH ADAMS FAIR 44 42 93 NE3 30.25R PITTSFIELD FAIR 60 51 72 VRB6G18 30.26R $$ RIZALL-210500- RHODE ISLAND CITY SKY/WX TMP DP RH WIND PRES REMARKS PROVIDENCE FAIR 50 49 96 SW6 30.31S NEWPORT FOG 46 46 100 S8 30.32F VSB 1/2 BLOCK ISLAND LGT RAIN 45 45 100 SW18 30.36S VSB 1/2 SMITHFIELD FAIR 56 52 86 VRB3 30.29S WESTERLY FOG 46 46 100 W3 30.35F VSB 1/4 $$ CTZALL-210500- CONNECTICUT CITY SKY/WX TMP DP RH WIND PRES REMARKS BRADLEY INTL FAIR 54 51 90 S10 30.28S HARTFORD FAIR 54 51 90 S9 30.30S BRIDGEPORT FAIR 46 44 93 SW7 30.33S DANBURY FAIR 62 55 77 SW8 30.31F GROTON FOG 46 44 93 CALM 30.35R VSB 1/4 NEW HAVEN FOG 45 42 89 S3 30.32F VSB 1/4 CHESTER CLOUDY 50 48 93 S3 30.33S FOG MERIDEN FAIR 50 48 93 S5 30.32R WILLIMANTIC FAIR 51 49 92 CALM 30.31F FOG OXFORD FAIR 57 53 86 SW8 30.32S $$ MEZ002-015-021-024-NHZ003-005-008-011-012-014-VTZ005-008-210500- NORTHERN NEW ENGLAND CITY SKY/WX TMP DP RH WIND PRES REMARKS PORTLAND ME CLOUDY 39 39 100 W3 30.28S FOG BANGOR ME DRIZZLE 36 36 100 CALM 30.27F FOG CONCORD NH FOG 42 40 92 CALM 30.26R VSB 1/2 MANCHESTER NH MOCLDY 42 42 100 CALM 30.26S FOG NASHUA NH FAIR 42 42 100 CALM 30.27S FOG PORTSMOUTH NH FOG 40 40 99 CALM 30.26F VSB 1/8 JAFFREY NH FAIR 39 32 76 CALM 30.26S KEENE NH MOCLDY 36 34 93 CALM 30.27S FOG BURLINGTON VT CLOUDY 58 49 72 S15 30.14R MT. WASHINGTON FOG 43 43 100 W71G78 N/A VSB 0 WCI 28 $$ NYZ052-076-210500- EASTERN NEW YORK CITY SKY/WX TMP DP RH WIND PRES REMARKS ALBANY MOCLDY 57 49 74 S9 30.22S NEW YORK CITY FAIR 54 48 80 S7 30.32S $$ ANZALL-210500- MARINE OBSERVATIONS STATION/POSITION TIME TEMP WIND PRES VSBY WAVE AIR SEA DIR/SP/G HT/PER (UTC) (F) (DEG/KT/KT) (MB) (MI) (FT/S) BOSTON BUOY 0350 47 41 170/ 6/ 8 1024.2S 3/11 BUZZARDS BAY NOT AVBL NANTUCKET SOUND 0350 41 38 250/ 10/ 12 1027.6R 1/ 3 MASS BAY-STELLWA 0304 39 39 1024.1F 4/11 ISLE OF SHOALS NOT AVBL S OF BLOCK IS 0343 40 N/A 5/ 6 $$ ......................KEY......................... SKY/WX - SKY CONDITION/PRESENT WEATHER TMP - TEMPERATURE IN FAHRENHEIT DWPT - DEWPOINT IN FAHRENHEIT RH - RELATIVE HUMIDITY IN PERCENT WIND - DIRECTION AND SPEED IN MPH PRES - MEAN SEA LEVEL PRESSURE IN INCHES OF HG WCI - WIND CHILL INDEX VSB - VISIBILITY IN MILES HX - HEAT INDEX TC - TEMPERATURE IN CELSIUS VRB - VARIABLE WIND DIRECTION N/A - NOT AVAILABLE

USA.gov is the U.S. government's official web portal to all federal, state and local government web resources and services.